Location: ????????
(48.4751°N, 37.6926°E)
Time: 03:19:47
(UTC+00:00)

Cosmos 1536 Rocket - Pass Details

Date: 20 January 2021
Orbit: 605 x 632 km, 82.5° (Epoch: 24 February)

Event Time Altitude Azimuth Distance (km) Brightness Sun altitude
Rises 14:39:38 0° 191° (S) 2,871 7.5 -5.3°
Reaches altitude 10° 14:41:50 10° 192° (SSW) 1,975 6.7 -5.7°
Maximum altitude 14:46:13 80° 280° (W) 636 3.7 -6.3°
Drops below altitude 10° 14:50:40 10° 8° (N) 2,008 5.9 -7.0°
Sets 14:52:56 0° 9° (N) 2,924 6.7 -7.3°
